This is the latest recevied weather packets stored in our database for station/object DB0LHR-6. If no packets are shown the sender has not sent any weather packets the latest 10 day(s).
| Time | Temp. | Humidity | Pressure | Rain* | Wind** | Luminosity | Snow |
|---|---|---|---|---|---|---|---|
| 1778358016 | 17.22° C | 51% | 1013 hPa | 0 mm | - | - | - |
| 1778357116 | 17.78° C | 50% | 1013 hPa | 0 mm | - | - | - |
| 1778356216 | 17.78° C | 49% | 1013 hPa | 0 mm | - | - | - |
| 1778355316 | 18.33° C | 49% | 1013 hPa | 0 mm | - | - | - |
| 1778354416 | 18.33° C | 48% | 1013 hPa | 0 mm | - | - | - |
| 1778353516 | 18.89° C | 50% | 1013 hPa | 0 mm | - | - | - |
| 1778352616 | 18.89° C | 49% | 1013 hPa | 0 mm | - | - | - |
| 1778351716 | 19.44° C | 47% | 1013 hPa | 0 mm | - | - | - |
| 1778350816 | 19.44° C | 46% | 1013 hPa | 0 mm | - | - | - |
| 1778349916 | 20° C | 45% | 1013 hPa | 0 mm | - | - | - |
| 1778349016 | 20° C | 44% | 1013 hPa | 0 mm | - | - | - |
| 1778348116 | 20.56° C | 43% | 1013 hPa | 0 mm | - | - | - |
| 1778347216 | 20.56° C | 42% | 1013 hPa | 0 mm | - | - | - |
| 1778346316 | 21.11° C | 40% | 1013 hPa | 0 mm | - | - | - |
| 1778345416 | 21.11° C | 36% | 1013 hPa | 0 mm | - | - | - |
| 1778344516 | 21.67° C | 34% | 1013 hPa | 0 mm | - | - | - |
| 1778343616 | 21.67° C | 33% | 1013 hPa | 0 mm | - | - | - |
| 1778342716 | 22.22° C | 32% | 1013 hPa | 0 mm | - | - | - |
| 1778341816 | 22.22° C | 31% | 1013 hPa | 0 mm | - | - | - |
| 1778340916 | 22.78° C | 28% | 1013 hPa | 0 mm | - | - | - |
| 1778340016 | 23.33° C | 30% | 1013 hPa | 0 mm | - | - | - |
| 1778339116 | 24.44° C | 30% | 1014 hPa | 0 mm | - | - | - |
| 1778338216 | 25° C | 30% | 1014 hPa | 0 mm | - | - | - |
| 1778337316 | 25° C | 31% | 1014 hPa | 0 mm | - | - | - |
| 1778336416 | 24.44° C | 30% | 1014 hPa | 0 mm | - | - | - |
* Rain latest 24 hours (hover to see other rain measurements)
** Current wind speed in m/s (hover to see current wind gust speed)